Вернуться в каталог

STARLINK-36707

АктивенСвязьSSO
NORAD 67706·PAYLOAD·🇺🇸 United States

Запущен Feb 7, 2026 с Vandenberg Space Force Base

Loading…

Ближайшие Пролёты (ближайшие 24 часа)

TLE

СвежийSource: CelesTrak SupGP

Эпоха: Sep 15, 2026, 03:51 UTC

1 67706C 26025P   26258.16090278 -.00016309  00000+0 -50625-3 0  2586
2 67706  97.2850   8.1214 0000914  85.9128  13.2732 15.33449831    12

Отслеживайте STARLINK-36707 в реальном времени с AllMySat

Download on the App Store